owner,sensor,date,latitude,longitude,vertical_datum,mass_concentration_of_oxygen_in_sea_water,qcFlag 
DISL,ioos:station:DISL:KATA:1,2014-12-01T00:00:00Z,30.2583,-88.2131,4.1,7.65,1111122 
DISL,ioos:station:DISL:KATA:1,2014-12-01T00:30:00Z,30.2583,-88.2131,4.114,7.67,1111122 
DISL,ioos:station:DISL:KATA:1,2014-12-01T01:00:00Z,30.2583,-88.2131,4.131,7.56,1111122 
DISL,ioos:station:DISL:KATA:1,2014-12-01T01:30:00Z,30.2583,-88.2131,4.15,7.57,1111122 
DISL,ioos:station:DISL:KATA:1,2014-12-01T02:00:00Z,30.2583,-88.2131,4.157,7.58,1111122 
DISL,ioos:station:DISL:KATA:1,2014-12-01T02:30:00Z,30.2583,-88.2131,4.154,7.47,1111122 
DISL,ioos:station:DISL:KATA:1,2014-12-01T03:00:00Z,30.2583,-88.2131,4.145,7.31,1111122 
DISL,ioos:station:DISL:KATA:1,2014-12-01T03:30:00Z,30.2583,-88.2131,4.127,6.59,1111122 
DISL,ioos:station:DISL:KATA:1,2014-12-01T04:00:00Z,30.2583,-88.2131,4.1,6.59,1111122 
DISL,ioos:station:DISL:KATA:1,2014-12-01T04:30:00Z,30.2583,-88.2131,4.071,6.88,1111122 
DISL,ioos:station:DISL:KATA:1,2014-12-01T05:00:00Z,30.2583,-88.2131,4.047,7.04,1111122 
DISL,ioos:station:DISL:KATA:1,2014-12-01T05:30:00Z,30.2583,-88.2131,4.02,7.03,1111122 
DISL,ioos:station:DISL:KATA:1,2014-12-01T06:00:00Z,30.2583,-88.2131,3.996,6.97,1111122 
DISL,ioos:station:DISL:KATA:1,2014-12-01T06:30:00Z,30.2583,-88.2131,3.977,7.19,1111122 
DISL,ioos:station:DISL:KATA:1,2014-12-01T07:00:00Z,30.2583,-88.2131,3.964,7.14,1111122 
DISL,ioos:station:DISL:KATA:1,2014-12-01T07:30:00Z,30.2583,-88.2131,3.957,7.19,1111122 
DISL,ioos:station:DISL:KATA:1,2014-12-01T08:00:00Z,30.2583,-88.2131,3.949,7.07,1111122 
DISL,ioos:station:DISL:KATA:1,2014-12-01T08:30:00Z,30.2583,-88.2131,3.947,7.08,1111122 
DISL,ioos:station:DISL:KATA:1,2014-12-01T09:00:00Z,30.2583,-88.2131,3.948,7.0,1111122 
DISL,ioos:station:DISL:KATA:1,2014-12-01T09:30:00Z,30.2583,-88.2131,3.945,6.17,1111122 
DISL,ioos:station:DISL:KATA:1,2014-12-01T10:00:00Z,30.2583,-88.2131,3.939,6.3,1111122 
DISL,ioos:station:DISL:KATA:1,2014-12-01T10:30:00Z,30.2583,-88.2131,3.922,6.51,1111122 
DISL,ioos:station:DISL:KATA:1,2014-12-01T11:00:00Z,30.2583,-88.2131,3.908,7.25,1111122 
DISL,ioos:station:DISL:KATA:1,2014-12-01T11:30:00Z,30.2583,-88.2131,3.9,7.28,1111122 
DISL,ioos:station:DISL:KATA:1,2014-12-01T12:00:00Z,30.2583,-88.2131,3.895,7.21,1111122 
DISL,ioos:station:DISL:KATA:1,2014-12-01T12:30:00Z,30.2583,-88.2131,3.899,7.0,1111122 
DISL,ioos:station:DISL:KATA:1,2014-12-01T13:00:00Z,30.2583,-88.2131,3.915,6.81,1111122 
DISL,ioos:station:DISL:KATA:1,2014-12-01T13:30:00Z,30.2583,-88.2131,3.929,6.88,1111122 
DISL,ioos:station:DISL:KATA:1,2014-12-01T14:00:00Z,30.2583,-88.2131,3.941,6.91,1111122 
DISL,ioos:station:DISL:KATA:1,2014-12-01T14:30:00Z,30.2583,-88.2131,3.948,7.01,1111122 
DISL,ioos:station:DISL:KATA:1,2014-12-01T15:00:00Z,30.2583,-88.2131,3.946,7.09,1111122 
DISL,ioos:station:DISL:KATA:1,2014-12-01T15:30:00Z,30.2583,-88.2131,3.931,7.12,1111122 
DISL,ioos:station:DISL:KATA:1,2014-12-01T16:00:00Z,30.2583,-88.2131,3.916,7.15,1111122 
DISL,ioos:station:DISL:KATA:1,2014-12-01T16:30:00Z,30.2583,-88.2131,3.9,7.03,1111122 
DISL,ioos:station:DISL:KATA:1,2014-12-01T17:00:00Z,30.2583,-88.2131,3.889,7.16,1111122 
DISL,ioos:station:DISL:KATA:1,2014-12-01T17:30:00Z,30.2583,-88.2131,3.901,7.29,1111122 
DISL,ioos:station:DISL:KATA:1,2014-12-01T18:00:00Z,30.2583,-88.2131,3.911,7.18,1111122 
DISL,ioos:station:DISL:KATA:1,2014-12-01T18:30:00Z,30.2583,-88.2131,3.923,7.31,1111122 
DISL,ioos:station:DISL:KATA:1,2014-12-01T19:00:00Z,30.2583,-88.2131,3.934,7.34,1111122 
DISL,ioos:station:DISL:KATA:1,2014-12-01T19:30:00Z,30.2583,-88.2131,3.95,7.37,1111122 
DISL,ioos:station:DISL:KATA:1,2014-12-01T20:00:00Z,30.2583,-88.2131,3.968,7.4,1111122 
DISL,ioos:station:DISL:KATA:1,2014-12-01T20:30:00Z,30.2583,-88.2131,3.989,7.47,1111122 
DISL,ioos:station:DISL:KATA:1,2014-12-01T21:00:00Z,30.2583,-88.2131,4.004,7.5,1111122 
DISL,ioos:station:DISL:KATA:1,2014-12-01T21:30:00Z,30.2583,-88.2131,4.031,7.57,1111122 
DISL,ioos:station:DISL:KATA:1,2014-12-01T22:00:00Z,30.2583,-88.2131,4.04,7.54,1111122 
DISL,ioos:station:DISL:KATA:1,2014-12-01T22:30:00Z,30.2583,-88.2131,4.056,7.58,1111122 
DISL,ioos:station:DISL:KATA:1,2014-12-01T23:00:00Z,30.2583,-88.2131,4.067,7.62,1111122 
DISL,ioos:station:DISL:KATA:1,2014-12-01T23:30:00Z,30.2583,-88.2131,4.072,7.65,1111122 
DISL,ioos:station:DISL:KATA:1,2014-12-02T00:00:00Z,30.2583,-88.2131,4.076,7.7,1111122 
DISL,ioos:station:DISL:KATA:1,2014-12-02T00:30:00Z,30.2583,-88.2131,4.087,7.73,1111122 
DISL,ioos:station:DISL:KATA:1,2014-12-02T01:00:00Z,30.2583,-88.2131,4.095,7.7,1111122 
DISL,ioos:station:DISL:KATA:1,2014-12-02T01:30:00Z,30.2583,-88.2131,4.113,7.74,1111122 
DISL,ioos:station:DISL:KATA:1,2014-12-02T02:00:00Z,30.2583,-88.2131,4.126,7.59,1111122 
DISL,ioos:station:DISL:KATA:1,2014-12-02T02:30:00Z,30.2583,-88.2131,4.134,7.61,1111122 
DISL,ioos:station:DISL:KATA:1,2014-12-02T03:00:00Z,30.2583,-88.2131,4.135,7.54,1111122 
DISL,ioos:station:DISL:KATA:1,2014-12-02T03:30:00Z,30.2583,-88.2131,4.123,8.43,1111122 
DISL,ioos:station:DISL:KATA:1,2014-12-02T04:00:00Z,30.2583,-88.2131,4.092,7.09,1111122 
DISL,ioos:station:DISL:KATA:1,2014-12-02T04:30:00Z,30.2583,-88.2131,4.061,6.97,1111122 
DISL,ioos:station:DISL:KATA:1,2014-12-02T05:00:00Z,30.2583,-88.2131,4.032,7.18,1111122 
DISL,ioos:station:DISL:KATA:1,2014-12-02T05:30:00Z,30.2583,-88.2131,3.997,7.29,1111122 
DISL,ioos:station:DISL:KATA:1,2014-12-02T06:00:00Z,30.2583,-88.2131,3.97,7.21,1111122 
DISL,ioos:station:DISL:KATA:1,2014-12-02T06:30:00Z,30.2583,-88.2131,3.954,7.34,1111122 
DISL,ioos:station:DISL:KATA:1,2014-12-02T07:00:00Z,30.2583,-88.2131,3.929,7.2,1111122 
DISL,ioos:station:DISL:KATA:1,2014-12-02T07:30:00Z,30.2583,-88.2131,3.919,7.08,1111122 
DISL,ioos:station:DISL:KATA:1,2014-12-02T08:00:00Z,30.2583,-88.2131,3.913,6.82,1111122 
DISL,ioos:station:DISL:KATA:1,2014-12-02T08:30:00Z,30.2583,-88.2131,3.906,6.62,1111122 
DISL,ioos:station:DISL:KATA:1,2014-12-02T09:00:00Z,30.2583,-88.2131,3.909,6.48,1111122 
DISL,ioos:station:DISL:KATA:1,2014-12-02T09:30:00Z,30.2583,-88.2131,3.911,6.69,1111122 
DISL,ioos:station:DISL:KATA:1,2014-12-02T10:00:00Z,30.2583,-88.2131,3.915,7.03,1111122 
DISL,ioos:station:DISL:KATA:1,2014-12-02T10:30:00Z,30.2583,-88.2131,3.928,7.02,1111122 
DISL,ioos:station:DISL:KATA:1,2014-12-02T11:00:00Z,30.2583,-88.2131,3.93,6.87,1111122 
DISL,ioos:station:DISL:KATA:1,2014-12-02T11:30:00Z,30.2583,-88.2131,3.923,6.74,1111122 
DISL,ioos:station:DISL:KATA:1,2014-12-02T12:00:00Z,30.2583,-88.2131,3.909,6.73,1111122 
DISL,ioos:station:DISL:KATA:1,2014-12-02T12:30:00Z,30.2583,-88.2131,3.907,6.84,1111122 
DISL,ioos:station:DISL:KATA:1,2014-12-02T13:00:00Z,30.2583,-88.2131,3.921,7.1,1111122 
DISL,ioos:station:DISL:KATA:1,2014-12-02T13:30:00Z,30.2583,-88.2131,3.943,6.79,1111122 
DISL,ioos:station:DISL:KATA:1,2014-12-02T14:00:00Z,30.2583,-88.2131,3.969,6.61,1111122 
DISL,ioos:station:DISL:KATA:1,2014-12-02T14:30:00Z,30.2583,-88.2131,3.981,6.85,1111122 
DISL,ioos:station:DISL:KATA:1,2014-12-02T15:00:00Z,30.2583,-88.2131,3.999,7.04,1111122 
DISL,ioos:station:DISL:KATA:1,2014-12-02T15:30:00Z,30.2583,-88.2131,4.024,7.03,1111122 
DISL,ioos:station:DISL:KATA:1,2014-12-02T16:00:00Z,30.2583,-88.2131,4.041,7.28,1111122 
DISL,ioos:station:DISL:KATA:1,2014-12-02T16:30:00Z,30.2583,-88.2131,4.049,7.14,1111122 
DISL,ioos:station:DISL:KATA:1,2014-12-02T17:00:00Z,30.2583,-88.2131,4.053,7.31,1111122 
DISL,ioos:station:DISL:KATA:1,2014-12-02T17:30:00Z,30.2583,-88.2131,4.047,7.45,1111122 
DISL,ioos:station:DISL:KATA:1,2014-12-02T18:00:00Z,30.2583,-88.2131,4.048,7.5,1111122 
DISL,ioos:station:DISL:KATA:1,2014-12-02T18:30:00Z,30.2583,-88.2131,4.052,7.52,1111122 
DISL,ioos:station:DISL:KATA:1,2014-12-02T19:00:00Z,30.2583,-88.2131,4.072,7.54,1111122 
DISL,ioos:station:DISL:KATA:1,2014-12-02T19:30:00Z,30.2583,-88.2131,4.095,7.69,1111122 
DISL,ioos:station:DISL:KATA:1,2014-12-02T20:00:00Z,30.2583,-88.2131,4.129,7.78,1111122 
DISL,ioos:station:DISL:KATA:1,2014-12-02T20:30:00Z,30.2583,-88.2131,4.164,7.93,1111122 
DISL,ioos:station:DISL:KATA:1,2014-12-02T21:00:00Z,30.2583,-88.2131,4.193,8.17,1111122 
DISL,ioos:station:DISL:KATA:1,2014-12-02T21:30:00Z,30.2583,-88.2131,4.205,8.02,1111122 
DISL,ioos:station:DISL:KATA:1,2014-12-02T22:00:00Z,30.2583,-88.2131,4.214,8.06,1111122 
DISL,ioos:station:DISL:KATA:1,2014-12-02T22:30:00Z,30.2583,-88.2131,4.227,8.15,1111122 
DISL,ioos:station:DISL:KATA:1,2014-12-02T23:00:00Z,30.2583,-88.2131,4.239,8.33,1111122 
DISL,ioos:station:DISL:KATA:1,2014-12-02T23:30:00Z,30.2583,-88.2131,4.256,8.29,1111122 
DISL,ioos:station:DISL:KATA:1,2014-12-03T00:00:00Z,30.2583,-88.2131,4.263,8.3,1111122 
DISL,ioos:station:DISL:KATA:1,2014-12-03T00:30:00Z,30.2583,-88.2131,4.271,8.33,1111122 
DISL,ioos:station:DISL:KATA:1,2014-12-03T01:00:00Z,30.2583,-88.2131,4.259,8.29,1111122 
DISL,ioos:station:DISL:KATA:1,2014-12-03T01:30:00Z,30.2583,-88.2131,4.257,8.4,1111122 
DISL,ioos:station:DISL:KATA:1,2014-12-03T02:00:00Z,30.2583,-88.2131,4.25,8.41,1111122 
DISL,ioos:station:DISL:KATA:1,2014-12-03T02:30:00Z,30.2583,-88.2131,4.249,7.24,1111122 
DISL,ioos:station:DISL:KATA:1,2014-12-03T03:00:00Z,30.2583,-88.2131,4.252,7.63,1111122 
DISL,ioos:station:DISL:KATA:1,2014-12-03T03:30:00Z,30.2583,-88.2131,4.245,7.81,1111122 
DISL,ioos:station:DISL:KATA:1,2014-12-03T04:00:00Z,30.2583,-88.2131,4.227,7.68,1111122 
DISL,ioos:station:DISL:KATA:1,2014-12-03T04:30:00Z,30.2583,-88.2131,4.194,7.94,1111122 
DISL,ioos:station:DISL:KATA:1,2014-12-03T05:00:00Z,30.2583,-88.2131,4.146,7.94,1111122 
DISL,ioos:station:DISL:KATA:1,2014-12-03T05:30:00Z,30.2583,-88.2131,4.095,8.14,1111122 
DISL,ioos:station:DISL:KATA:1,2014-12-03T06:00:00Z,30.2583,-88.2131,4.049,8.18,1111122 
DISL,ioos:station:DISL:KATA:1,2014-12-03T06:30:00Z,30.2583,-88.2131,3.999,8.14,1111122 
DISL,ioos:station:DISL:KATA:1,2014-12-03T07:00:00Z,30.2583,-88.2131,3.955,8.35,1111122 
DISL,ioos:station:DISL:KATA:1,2014-12-03T07:30:00Z,30.2583,-88.2131,3.919,8.47,1111122 
DISL,ioos:station:DISL:KATA:1,2014-12-03T08:00:00Z,30.2583,-88.2131,3.881,8.66,1111122 
DISL,ioos:station:DISL:KATA:1,2014-12-03T08:30:00Z,30.2583,-88.2131,3.843,8.7,1111122 
DISL,ioos:station:DISL:KATA:1,2014-12-03T09:00:00Z,30.2583,-88.2131,3.813,8.37,1111122 
DISL,ioos:station:DISL:KATA:1,2014-12-03T09:30:00Z,30.2583,-88.2131,3.795,8.4,1111122 
DISL,ioos:station:DISL:KATA:1,2014-12-03T10:00:00Z,30.2583,-88.2131,3.785,7.62,1111122 
DISL,ioos:station:DISL:KATA:1,2014-12-03T10:30:00Z,30.2583,-88.2131,3.789,7.9,1111122 
DISL,ioos:station:DISL:KATA:1,2014-12-03T11:00:00Z,30.2583,-88.2131,3.791,7.92,1111122 
DISL,ioos:station:DISL:KATA:1,2014-12-03T11:30:00Z,30.2583,-88.2131,3.798,7.82,1111122 
DISL,ioos:station:DISL:KATA:1,2014-12-03T12:00:00Z,30.2583,-88.2131,3.801,7.85,1111122 
DISL,ioos:station:DISL:KATA:1,2014-12-03T12:30:00Z,30.2583,-88.2131,3.796,7.58,1111122 
DISL,ioos:station:DISL:KATA:1,2014-12-03T13:00:00Z,30.2583,-88.2131,3.799,7.64,1111122 
DISL,ioos:station:DISL:KATA:1,2014-12-03T13:30:00Z,30.2583,-88.2131,3.802,7.18,1111122 
DISL,ioos:station:DISL:KATA:1,2014-12-03T14:00:00Z,30.2583,-88.2131,3.822,7.53,1111122 
DISL,ioos:station:DISL:KATA:1,2014-12-03T14:30:00Z,30.2583,-88.2131,3.84,7.42,1111122 
DISL,ioos:station:DISL:KATA:1,2014-12-03T15:00:00Z,30.2583,-88.2131,3.879,7.37,1111122 
DISL,ioos:station:DISL:KATA:1,2014-12-03T15:30:00Z,30.2583,-88.2131,3.915,7.49,1111122 
DISL,ioos:station:DISL:KATA:1,2014-12-03T16:00:00Z,30.2583,-88.2131,3.943,7.54,1111122 
DISL,ioos:station:DISL:KATA:1,2014-12-03T16:30:00Z,30.2583,-88.2131,3.968,7.68,1111122 
DISL,ioos:station:DISL:KATA:1,2014-12-03T17:00:00Z,30.2583,-88.2131,3.987,7.79,1111122 
DISL,ioos:station:DISL:KATA:1,2014-12-03T17:30:00Z,30.2583,-88.2131,4.002,7.95,1111122 
DISL,ioos:station:DISL:KATA:1,2014-12-03T18:00:00Z,30.2583,-88.2131,4.025,8.08,1111122 
DISL,ioos:station:DISL:KATA:1,2014-12-03T18:30:00Z,30.2583,-88.2131,4.041,8.19,1111122 
DISL,ioos:station:DISL:KATA:1,2014-12-03T19:00:00Z,30.2583,-88.2131,4.052,8.27,1111122 
DISL,ioos:station:DISL:KATA:1,2014-12-03T19:30:00Z,30.2583,-88.2131,4.071,8.27,1111122 
DISL,ioos:station:DISL:KATA:1,2014-12-03T20:00:00Z,30.2583,-88.2131,4.098,8.2,1111122 
DISL,ioos:station:DISL:KATA:1,2014-12-03T20:30:00Z,30.2583,-88.2131,4.122,8.19,1111122 
DISL,ioos:station:DISL:KATA:1,2014-12-03T21:00:00Z,30.2583,-88.2131,4.15,8.18,1111122 
DISL,ioos:station:DISL:KATA:1,2014-12-03T21:30:00Z,30.2583,-88.2131,4.186,8.2,1111122 
DISL,ioos:station:DISL:KATA:1,2014-12-03T22:00:00Z,30.2583,-88.2131,4.22,8.27,1111122 
DISL,ioos:station:DISL:KATA:1,2014-12-03T22:30:00Z,30.2583,-88.2131,4.254,8.3,1111122 
DISL,ioos:station:DISL:KATA:1,2014-12-03T23:00:00Z,30.2583,-88.2131,4.277,8.36,1111122 
DISL,ioos:station:DISL:KATA:1,2014-12-03T23:30:00Z,30.2583,-88.2131,4.295,8.32,1111122 
DISL,ioos:station:DISL:KATA:1,2014-12-04T00:00:00Z,30.2583,-88.2131,4.307,8.28,1111122 
DISL,ioos:station:DISL:KATA:1,2014-12-04T00:30:00Z,30.2583,-88.2131,4.306,8.23,1111122 
DISL,ioos:station:DISL:KATA:1,2014-12-04T01:00:00Z,30.2583,-88.2131,4.307,8.22,1111122 
DISL,ioos:station:DISL:KATA:1,2014-12-04T01:30:00Z,30.2583,-88.2131,4.306,8.18,1111122 
DISL,ioos:station:DISL:KATA:1,2014-12-04T02:00:00Z,30.2583,-88.2131,4.303,8.24,1111122 
DISL,ioos:station:DISL:KATA:1,2014-12-04T02:30:00Z,30.2583,-88.2131,4.307,8.05,1111122 
DISL,ioos:station:DISL:KATA:1,2014-12-04T03:00:00Z,30.2583,-88.2131,4.3,8.18,1111122 
DISL,ioos:station:DISL:KATA:1,2014-12-04T03:30:00Z,30.2583,-88.2131,4.292,8.2,1111122 
DISL,ioos:station:DISL:KATA:1,2014-12-04T04:00:00Z,30.2583,-88.2131,4.278,8.16,1111122 
DISL,ioos:station:DISL:KATA:1,2014-12-04T04:30:00Z,30.2583,-88.2131,4.255,7.73,1111122 
DISL,ioos:station:DISL:KATA:1,2014-12-04T05:00:00Z,30.2583,-88.2131,4.226,7.85,1111122 
DISL,ioos:station:DISL:KATA:1,2014-12-04T05:30:00Z,30.2583,-88.2131,4.185,7.96,1111122 
DISL,ioos:station:DISL:KATA:1,2014-12-04T06:00:00Z,30.2583,-88.2131,4.133,8.13,1111122 
DISL,ioos:station:DISL:KATA:1,2014-12-04T06:30:00Z,30.2583,-88.2131,4.084,8.07,1111122 
DISL,ioos:station:DISL:KATA:1,2014-12-04T07:00:00Z,30.2583,-88.2131,4.029,8.12,1111122 
DISL,ioos:station:DISL:KATA:1,2014-12-04T07:30:00Z,30.2583,-88.2131,3.985,8.18,1111122 
DISL,ioos:station:DISL:KATA:1,2014-12-04T08:00:00Z,30.2583,-88.2131,3.936,8.17,1111122 
DISL,ioos:station:DISL:KATA:1,2014-12-04T08:30:00Z,30.2583,-88.2131,3.897,8.18,1111122 
DISL,ioos:station:DISL:KATA:1,2014-12-04T09:00:00Z,30.2583,-88.2131,3.861,8.09,1111122 
DISL,ioos:station:DISL:KATA:1,2014-12-04T09:30:00Z,30.2583,-88.2131,3.831,8.02,1111122 
DISL,ioos:station:DISL:KATA:1,2014-12-04T10:00:00Z,30.2583,-88.2131,3.801,7.99,1111122 
DISL,ioos:station:DISL:KATA:1,2014-12-04T10:30:00Z,30.2583,-88.2131,3.775,7.83,1111122 
DISL,ioos:station:DISL:KATA:1,2014-12-04T11:00:00Z,30.2583,-88.2131,3.755,7.51,1111122 
DISL,ioos:station:DISL:KATA:1,2014-12-04T11:30:00Z,30.2583,-88.2131,3.745,7.31,1111122 
DISL,ioos:station:DISL:KATA:1,2014-12-04T12:00:00Z,30.2583,-88.2131,3.736,7.57,1111122 
DISL,ioos:station:DISL:KATA:1,2014-12-04T12:30:00Z,30.2583,-88.2131,3.742,7.6,1111122 
DISL,ioos:station:DISL:KATA:1,2014-12-04T13:00:00Z,30.2583,-88.2131,3.748,7.63,1111122 
DISL,ioos:station:DISL:KATA:1,2014-12-04T13:30:00Z,30.2583,-88.2131,3.761,7.64,1111122 
DISL,ioos:station:DISL:KATA:1,2014-12-04T14:00:00Z,30.2583,-88.2131,3.786,7.63,1111122 
DISL,ioos:station:DISL:KATA:1,2014-12-04T14:30:00Z,30.2583,-88.2131,3.813,7.6,1111122 
DISL,ioos:station:DISL:KATA:1,2014-12-04T15:00:00Z,30.2583,-88.2131,3.837,7.77,1111122 
DISL,ioos:station:DISL:KATA:1,2014-12-04T15:30:00Z,30.2583,-88.2131,3.872,7.75,1111122 
DISL,ioos:station:DISL:KATA:1,2014-12-04T16:00:00Z,30.2583,-88.2131,3.906,7.84,1111122 
DISL,ioos:station:DISL:KATA:1,2014-12-04T16:30:00Z,30.2583,-88.2131,3.938,7.91,1111122 
DISL,ioos:station:DISL:KATA:1,2014-12-04T17:00:00Z,30.2583,-88.2131,3.966,7.99,1111122 
DISL,ioos:station:DISL:KATA:1,2014-12-04T17:30:00Z,30.2583,-88.2131,3.985,8.04,1111122 
DISL,ioos:station:DISL:KATA:1,2014-12-04T18:00:00Z,30.2583,-88.2131,4.005,8.09,1111122 
DISL,ioos:station:DISL:KATA:1,2014-12-04T18:30:00Z,30.2583,-88.2131,4.01,8.05,1111122 
DISL,ioos:station:DISL:KATA:1,2014-12-04T19:00:00Z,30.2583,-88.2131,4.025,8.01,1111122 
DISL,ioos:station:DISL:KATA:1,2014-12-04T19:30:00Z,30.2583,-88.2131,4.042,7.99,1111122 
DISL,ioos:station:DISL:KATA:1,2014-12-04T20:00:00Z,30.2583,-88.2131,4.068,7.98,1111122 
DISL,ioos:station:DISL:KATA:1,2014-12-04T20:30:00Z,30.2583,-88.2131,4.083,8.07,1111122 
DISL,ioos:station:DISL:KATA:1,2014-12-04T21:00:00Z,30.2583,-88.2131,4.11,8.03,1111122 
DISL,ioos:station:DISL:KATA:1,2014-12-04T21:30:00Z,30.2583,-88.2131,4.136,8.11,1111122 
DISL,ioos:station:DISL:KATA:1,2014-12-04T22:00:00Z,30.2583,-88.2131,4.168,8.06,1111122 
DISL,ioos:station:DISL:KATA:1,2014-12-04T22:30:00Z,30.2583,-88.2131,4.2,8.18,1111122 
DISL,ioos:station:DISL:KATA:1,2014-12-04T23:00:00Z,30.2583,-88.2131,4.228,8.25,1111122 
DISL,ioos:station:DISL:KATA:1,2014-12-04T23:30:00Z,30.2583,-88.2131,4.253,8.15,1111122 
DISL,ioos:station:DISL:KATA:1,2014-12-05T00:00:00Z,30.2583,-88.2131,4.283,8.19,1111122 
DISL,ioos:station:DISL:KATA:1,2014-12-05T00:30:00Z,30.2583,-88.2131,4.301,8.21,1111122 
DISL,ioos:station:DISL:KATA:1,2014-12-05T01:00:00Z,30.2583,-88.2131,4.324,8.12,1111122 
DISL,ioos:station:DISL:KATA:1,2014-12-05T01:30:00Z,30.2583,-88.2131,4.335,8.0,1111122 
DISL,ioos:station:DISL:KATA:1,2014-12-05T02:00:00Z,30.2583,-88.2131,4.339,7.97,1111122 
DISL,ioos:station:DISL:KATA:1,2014-12-05T02:30:00Z,30.2583,-88.2131,4.345,7.94,1111122 
DISL,ioos:station:DISL:KATA:1,2014-12-05T03:00:00Z,30.2583,-88.2131,4.338,7.95,1111122 
DISL,ioos:station:DISL:KATA:1,2014-12-05T03:30:00Z,30.2583,-88.2131,4.326,7.91,1111122 
DISL,ioos:station:DISL:KATA:1,2014-12-05T04:00:00Z,30.2583,-88.2131,4.316,7.82,1111122 
DISL,ioos:station:DISL:KATA:1,2014-12-05T04:30:00Z,30.2583,-88.2131,4.298,7.81,1111122 
DISL,ioos:station:DISL:KATA:1,2014-12-05T05:00:00Z,30.2583,-88.2131,4.269,7.28,1111122 
DISL,ioos:station:DISL:KATA:1,2014-12-05T05:30:00Z,30.2583,-88.2131,4.244,6.85,1111122 
DISL,ioos:station:DISL:KATA:1,2014-12-05T06:00:00Z,30.2583,-88.2131,4.209,7.64,1111122 
DISL,ioos:station:DISL:KATA:1,2014-12-05T06:30:00Z,30.2583,-88.2131,4.167,7.73,1111122 
DISL,ioos:station:DISL:KATA:1,2014-12-05T07:00:00Z,30.2583,-88.2131,4.116,7.81,1111122 
DISL,ioos:station:DISL:KATA:1,2014-12-05T07:30:00Z,30.2583,-88.2131,4.068,7.82,1111122 
DISL,ioos:station:DISL:KATA:1,2014-12-05T08:00:00Z,30.2583,-88.2131,4.016,7.9,1111122 
DISL,ioos:station:DISL:KATA:1,2014-12-05T08:30:00Z,30.2583,-88.2131,3.963,8.0,1111122 
DISL,ioos:station:DISL:KATA:1,2014-12-05T09:00:00Z,30.2583,-88.2131,3.915,7.98,1111122 
DISL,ioos:station:DISL:KATA:1,2014-12-05T09:30:00Z,30.2583,-88.2131,3.872,8.02,1111122 
DISL,ioos:station:DISL:KATA:1,2014-12-05T10:00:00Z,30.2583,-88.2131,3.837,7.96,1111122 
DISL,ioos:station:DISL:KATA:1,2014-12-05T10:30:00Z,30.2583,-88.2131,3.812,7.93,1111122 
DISL,ioos:station:DISL:KATA:1,2014-12-05T11:00:00Z,30.2583,-88.2131,3.8,7.93,1111122 
DISL,ioos:station:DISL:KATA:1,2014-12-05T11:30:00Z,30.2583,-88.2131,3.799,7.91,1111122 
DISL,ioos:station:DISL:KATA:1,2014-12-05T12:00:00Z,30.2583,-88.2131,3.813,7.15,1111122 
DISL,ioos:station:DISL:KATA:1,2014-12-05T12:30:00Z,30.2583,-88.2131,3.827,7.07,1111122 
DISL,ioos:station:DISL:KATA:1,2014-12-05T13:00:00Z,30.2583,-88.2131,3.836,7.52,1111122 
DISL,ioos:station:DISL:KATA:1,2014-12-05T13:30:00Z,30.2583,-88.2131,3.847,7.69,1111122 
DISL,ioos:station:DISL:KATA:1,2014-12-05T14:00:00Z,30.2583,-88.2131,3.855,7.67,1111122 
DISL,ioos:station:DISL:KATA:1,2014-12-05T14:30:00Z,30.2583,-88.2131,3.856,7.76,1111122 
DISL,ioos:station:DISL:KATA:1,2014-12-05T15:00:00Z,30.2583,-88.2131,3.854,7.81,1111122 
DISL,ioos:station:DISL:KATA:1,2014-12-05T15:30:00Z,30.2583,-88.2131,3.876,7.79,1111122 
DISL,ioos:station:DISL:KATA:1,2014-12-05T16:00:00Z,30.2583,-88.2131,3.905,7.73,1111122 
DISL,ioos:station:DISL:KATA:1,2014-12-05T16:30:00Z,30.2583,-88.2131,3.941,7.78,1111122 
DISL,ioos:station:DISL:KATA:1,2014-12-05T17:00:00Z,30.2583,-88.2131,3.988,7.53,1111122 
DISL,ioos:station:DISL:KATA:1,2014-12-05T17:30:00Z,30.2583,-88.2131,4.034,7.62,1111122 
DISL,ioos:station:DISL:KATA:1,2014-12-05T18:00:00Z,30.2583,-88.2131,4.06,7.67,1111122 
DISL,ioos:station:DISL:KATA:1,2014-12-05T18:30:00Z,30.2583,-88.2131,4.085,7.8,1111122 
DISL,ioos:station:DISL:KATA:1,2014-12-05T19:00:00Z,30.2583,-88.2131,4.109,7.99,1111122 
DISL,ioos:station:DISL:KATA:1,2014-12-05T19:30:00Z,30.2583,-88.2131,4.129,8.06,1111122 
DISL,ioos:station:DISL:KATA:1,2014-12-05T20:00:00Z,30.2583,-88.2131,4.144,8.19,1111122 
DISL,ioos:station:DISL:KATA:1,2014-12-05T20:30:00Z,30.2583,-88.2131,4.159,8.29,1111122 
DISL,ioos:station:DISL:KATA:1,2014-12-05T21:00:00Z,30.2583,-88.2131,4.186,8.32,1111122 
DISL,ioos:station:DISL:KATA:1,2014-12-05T21:30:00Z,30.2583,-88.2131,4.218,8.4,1111122 
DISL,ioos:station:DISL:KATA:1,2014-12-05T22:00:00Z,30.2583,-88.2131,4.251,8.37,1111122 
DISL,ioos:station:DISL:KATA:1,2014-12-05T22:30:00Z,30.2583,-88.2131,4.284,8.39,1111122 
DISL,ioos:station:DISL:KATA:1,2014-12-05T23:00:00Z,30.2583,-88.2131,4.317,8.33,1111122 
DISL,ioos:station:DISL:KATA:1,2014-12-05T23:30:00Z,30.2583,-88.2131,4.342,8.29,1111122 
DISL,ioos:station:DISL:KATA:1,2014-12-06T00:00:00Z,30.2583,-88.2131,4.372,8.31,1111122 
DISL,ioos:station:DISL:KATA:1,2014-12-06T00:30:00Z,30.2583,-88.2131,4.401,8.29,1111122 
DISL,ioos:station:DISL:KATA:1,2014-12-06T01:00:00Z,30.2583,-88.2131,4.429,8.22,1111122 
DISL,ioos:station:DISL:KATA:1,2014-12-06T01:30:00Z,30.2583,-88.2131,4.445,8.11,1111122 
DISL,ioos:station:DISL:KATA:1,2014-12-06T02:00:00Z,30.2583,-88.2131,4.462,8.12,1111122 
DISL,ioos:station:DISL:KATA:1,2014-12-06T02:30:00Z,30.2583,-88.2131,4.469,8.06,1111122 
DISL,ioos:station:DISL:KATA:1,2014-12-06T03:00:00Z,30.2583,-88.2131,4.469,7.97,1111122 
DISL,ioos:station:DISL:KATA:1,2014-12-06T03:30:00Z,30.2583,-88.2131,4.449,8.01,1111122 
DISL,ioos:station:DISL:KATA:1,2014-12-06T04:00:00Z,30.2583,-88.2131,4.423,7.86,1111122 
DISL,ioos:station:DISL:KATA:1,2014-12-06T04:30:00Z,30.2583,-88.2131,4.396,7.81,1111122 
DISL,ioos:station:DISL:KATA:1,2014-12-06T05:00:00Z,30.2583,-88.2131,4.359,7.76,1111122 
DISL,ioos:station:DISL:KATA:1,2014-12-06T05:30:00Z,30.2583,-88.2131,4.328,7.83,1111122 
DISL,ioos:station:DISL:KATA:1,2014-12-06T06:00:00Z,30.2583,-88.2131,4.292,7.84,1111122 
DISL,ioos:station:DISL:KATA:1,2014-12-06T06:30:00Z,30.2583,-88.2131,4.246,7.95,1111122 
DISL,ioos:station:DISL:KATA:1,2014-12-06T07:00:00Z,30.2583,-88.2131,4.2,7.96,1111122 
DISL,ioos:station:DISL:KATA:1,2014-12-06T07:30:00Z,30.2583,-88.2131,4.143,7.97,1111122 
DISL,ioos:station:DISL:KATA:1,2014-12-06T08:00:00Z,30.2583,-88.2131,4.08,7.99,1111122 
DISL,ioos:station:DISL:KATA:1,2014-12-06T08:30:00Z,30.2583,-88.2131,4.023,7.99,1111122 
DISL,ioos:station:DISL:KATA:1,2014-12-06T09:00:00Z,30.2583,-88.2131,3.966,7.96,1111122 
DISL,ioos:station:DISL:KATA:1,2014-12-06T09:30:00Z,30.2583,-88.2131,3.91,7.9,1111122 
DISL,ioos:station:DISL:KATA:1,2014-12-06T10:00:00Z,30.2583,-88.2131,3.861,7.88,1111122 
DISL,ioos:station:DISL:KATA:1,2014-12-06T10:30:00Z,30.2583,-88.2131,3.822,7.88,1111122 
DISL,ioos:station:DISL:KATA:1,2014-12-06T11:00:00Z,30.2583,-88.2131,3.789,7.91,1111122 
DISL,ioos:station:DISL:KATA:1,2014-12-06T11:30:00Z,30.2583,-88.2131,3.757,7.85,1111122 
DISL,ioos:station:DISL:KATA:1,2014-12-06T12:00:00Z,30.2583,-88.2131,3.739,7.84,1111122 
DISL,ioos:station:DISL:KATA:1,2014-12-06T12:30:00Z,30.2583,-88.2131,3.728,7.9,1111122 
DISL,ioos:station:DISL:KATA:1,2014-12-06T13:00:00Z,30.2583,-88.2131,3.725,7.69,1111122 
DISL,ioos:station:DISL:KATA:1,2014-12-06T13:30:00Z,30.2583,-88.2131,3.732,7.6,1111122 
DISL,ioos:station:DISL:KATA:1,2014-12-06T14:00:00Z,30.2583,-88.2131,3.749,7.3,1111122 
DISL,ioos:station:DISL:KATA:1,2014-12-06T14:30:00Z,30.2583,-88.2131,3.767,7.37,1111122 
DISL,ioos:station:DISL:KATA:1,2014-12-06T15:00:00Z,30.2583,-88.2131,3.788,7.27,1111122 
DISL,ioos:station:DISL:KATA:1,2014-12-06T15:30:00Z,30.2583,-88.2131,3.81,7.58,1111122 